Flag Weather past 2 weeks in Winterthur, Switzerland

Now
39 °F

Fog.


Feels Like: 39 °F
Forecast: 40 / 62 °F
Wind: No wind

Location: Zurich-Kloten

Current Time: Oct 31, 2014 at 5:24:25 AM

Latest Report: Oct 31, 2014 at 4:50 AM


Visibility: 0 mi

Pressure: 30.30 "Hg

Humidity: 100%

Dew point: 39 °F

Location of WinterthurLocation

Historic Weather in Winterthur — Graph

°F

Winterthur temperature yesterday

Maximum temperature yesterday: 61 °F (at 3:50 PM)
Minimum temperature yesterday: 41 °F (at 11:50 PM)
Average temperature yesterday: 49 °F

Past Weeks' High & Low Weather Summary

 TemperatureHumidityPressure
High73 °F (Oct 19, 3:50 PM)100% (Oct 16, 7:20 AM)30.33 "Hg (Oct 16, 7:20 AM)
Low39 °F (Oct 24, 2:50 AM)50% (Oct 19, 3:50 PM)29.74 "Hg (Oct 21, 7:50 PM)
Average51 °F86%30.15 "Hg
* Reported Oct 16 5:20 AM — Oct 31 4:20 AM, Winterthur, Weather by CustomWeather, © 2014

Note: Actual official high and low records may vary slightly from our data, if they occured in-between our weather recording intervals... More about our weather records

Advertising

Winterthur weather history for previous 24 hours

 ConditionsComfort  
Time TempWeatherWind HumidityBarometerVisibility
4:20 AM
Oct 31
39 °FFog.1 mph100%30.33 "Hg0 mi
3:50 AM39 °FFog.3 mph100%30.33 "Hg0 mi
3:20 AM41 °FFog.No wind100%30.30 "Hg0 mi
2:50 AM39 °FFog.1 mph100%30.30 "Hg0 mi
2:20 AM41 °FLight fog.1 mph100%30.33 "Hg0 mi
1:50 AM41 °FLight fog.No wind100%30.33 "Hg0 mi
12:50 AM39 °FLight fog.2 mph100%30.33 "Hg1 mi
12:20 AM43 °FFog.1 mph100%30.33 "Hg2 mi
11:50 PM
Oct 30
41 °FFog.2 mph100%30.33 "Hg4 mi
11:20 PM45 °FFog.2 mph93%30.33 "Hg4 mi
10:50 PM45 °FFog.2 mph93%30.30 "Hg4 mi
10:20 PM45 °FClear.1 mph93%30.30 "Hg4 mi
9:50 PM45 °FFog.1 mph100%30.30 "Hg4 mi
9:20 PM45 °FClear.3 mph100%30.30 "Hg5 mi
8:50 PM46 °FClear.1 mph93%30.30 "Hg5 mi
8:20 PM46 °FFog.1 mph93%30.30 "Hg5 mi
7:50 PM46 °FClear.2 mph87%30.30 "Hg10 mi
7:20 PM50 °FPassing clouds.3 mph88%30.30 "HgN/A
6:50 PM50 °FClear.1 mph88%30.30 "Hg10 mi
6:20 PM52 °FClear.2 mph77%30.30 "Hg10 mi
5:50 PM52 °FClear.2 mph77%30.30 "Hg10 mi
5:20 PM55 °FPassing clouds.5 mph67%30.27 "HgN/A
4:50 PM57 °FSunny.7 mph67%30.27 "Hg10 mi
4:20 PM59 °FPassing clouds.6 mph68%30.27 "HgN/A
3:50 PM61 °FPassing clouds.3 mph59%30.27 "HgN/A
3:20 PM59 °FPassing clouds.3 mph68%30.27 "HgN/A
2:50 PM59 °FSunny.2 mph68%30.27 "Hg10 mi
2:20 PM59 °FSunny.2 mph63%30.27 "Hg10 mi
1:50 PM59 °FSunny.2 mph59%30.27 "Hg10 mi
1:20 PM57 °FSunny.2 mph72%30.27 "Hg10 mi
12:50 PM55 °FPartly sunny.3 mph77%30.27 "HgN/A
12:20 PM55 °FBroken clouds.1 mph72%30.27 "HgN/A
11:50 AM54 °FPartly sunny.3 mph77%30.30 "HgN/A
11:20 AM52 °FPartly sunny.5 mph82%30.30 "HgN/A
10:50 AM52 °FPartly sunny.3 mph82%30.30 "HgN/A
10:20 AM50 °FPartly sunny.2 mph82%30.27 "HgN/A
9:50 AM50 °FPartly sunny.1 mph88%30.27 "HgN/A
9:20 AM48 °FPartly sunny.1 mph94%30.27 "HgN/A
8:50 AM48 °FPartly sunny.2 mph94%30.27 "HgN/A
8:20 AM48 °FPartly sunny.5 mph94%30.27 "HgN/A
7:50 AM46 °FPartly sunny.No wind93%30.24 "HgN/A
7:20 AM46 °FPartly sunny.1 mph93%30.24 "HgN/A
6:50 AM46 °FPassing clouds.2 mph93%30.24 "Hg6 mi
6:20 AM46 °FPassing clouds.1 mph93%30.21 "Hg6 mi
5:50 AM46 °FPassing clouds.2 mph93%30.21 "Hg6 mi
5:20 AM45 °FPassing clouds.2 mph93%30.21 "Hg6 mi
Weather by CustomWeather, © 2014

See weather overviewHow to use our weather pages